Find Star One C2

NORAD ID: 32768 Int'l Des: 2008-018 Owner: STONE Country: BR operational
HEOCIRCULARGSO

Current View

Loading 3D Globe...

About Star One C2

Description loading...

Upcoming Passes

Passes for default location (London). Set your location on the main map for personalized predictions.

Altitude History

Loading altitude history...

Two-Line Element Set

1 32768U 08018B 26149.49208124 -.00000266 00000-0 00000+0 0 9999
2 32768 1.1947 82.6280 0002929 345.5653 290.9945 1.00272409 66464
Epoch: May 29, 2026 • Age: 14 hours

Current Status

Altitude 35794.9 km
Velocity 3.07 km/s
Sub-Earth Point 0.99°N, 64.96°W
Launch Date Apr 18, 2008
Age 18.1 years
Type other

Technical Details

Classification Payload
Mass 4100.00 kg
Dry Mass 1750.00 kg
Total Mass 4100.00 kg
Length 4.00 m
Diameter 2.40 m
Span 22.40 m
Shape Box + 2 Pan
Manufacturer THALA
Bus Type Spacebus 3000B3
Phase Status In Orbit
Owner/State STONE/BR

Most Searched